Welcome to the New NWS' Forecast!
Most changes are behind the scenes, but click here for differences you might notice.
Latest weather observations around

St Clair County Airport (KPLR)

Using English Units (Switch to International System of Units)
Date/ Time (CDT) Wind (mph) Vis. (mi) Weather Sky Cond. Temp (°F) Rel. Humidity Wind Chill (°F) Heat Index (°F) Pressure Precip. (in)
Air Dwpt 6 hour Altimeter (inHg) Sea level (inHg) 1 hr 3 hr 6 hr
Max Min
Jul 15 17:15 Calm 10 Clear   91 77     63%   105 30        
Jul 15 16:55 ENE 5 10 Clear   90 77     67%   103 29.99        
Jul 15 16:35 Calm 10 Clear   90 75     63%   100 30        
Jul 15 16:15 Calm 10 Clear   90 77     67%   103 30.01        
Jul 15 15:55 N 6 10 Clear   91 79     67%   108 30.01        
Jul 15 15:35 Calm 10 Clear   90 77     67%   103 30.01        
Jul 15 15:15 Calm 10 Clear   90 77     67%   103 30.01        
Jul 15 14:55 5 10 Clear   88 77     70%   100 30        
Jul 15 14:35 Calm 10 Clear   88 77     70%   100 30.01        
Jul 15 14:15 NNE 6 10 Clear   88 77     70%   100 30.02        
Jul 15 13:55 NNE 3 10 Clear   88 77     70%   100 30.03        
Jul 15 13:35 ENE 6 10 Clear   88 79     75%   102 30.05        
Jul 15 13:15 3 10 Clear   86 77     75%   97 30.06        
Jul 15 12:55 3 9 Clear   86 77     75%   97 30.07        
Jul 15 12:35 3 10 Clear   86 77     75%   97 30.08        
Jul 15 12:15 Calm 9 Clear   84 77     79%   94 30.09        
Jul 15 11:55 Calm 10 Clear   84 77     79%   94 30.1        
Jul 15 11:35 N 3 10 Clear   84 77     79%   94 30.1        
Jul 15 11:15 Calm 9 Clear   81 75     84%   86 30.1        
Jul 15 10:55 Calm 9 Clear   82 77     84%   91 30.1        
Jul 15 10:35 Calm 10 Clear   81 75     84%   86 30.1        
Jul 15 10:15 SW 3 9 Clear   81 75     84%   86 30.1        
Jul 15 09:55 3 9 Clear   79 77     94%   83 30.1        
Jul 15 09:35 Calm 10 Clear   79 77     94%   83 30.1        
Jul 15 09:15 Calm 10 Clear   79 77     94%   83 30.1        
Jul 15 08:55 Calm 9 Clear   77 77     100%   79 30.1        
Jul 15 08:35 Calm 9 Clear   77 77     100%   79 30.1        
Jul 15 08:15 Calm 9 Clear   77 77     100%   79 30.1        
Jul 15 07:55 Calm 8 Clear   77 77     100%   79 30.1        
Jul 15 07:35 Calm 8 Clear   75 75     100%   77 30.1        
Jul 15 07:15 Calm 8 Clear   75 75     100%   77 30.1        
Jul 15 06:55 Calm 8 Clear   75 75     100%   77 30.1        
Jul 15 06:35 Calm 5 Clear   73 73     100%   75 30.09        
Jul 15 06:15 Calm 7 Clear   73 73     100%   75 30.09        
Jul 15 05:55 Calm 8 Clear   73 73     100%   75 30.09        
Jul 15 05:35 Calm 5 Clear   73 73     100%   75 30.08        
Jul 15 05:15 Calm 5 Clear   73 73     100%   75 30.08        
Jul 15 04:55 Calm 5 Clear   73 73     100%   75 30.07        
Jul 15 04:35 Calm 6 Clear   72 72     100%   73 30.06        
Jul 15 04:15 Calm 6 Clear   72 72     100%   73 30.07        
Jul 15 03:55 Calm 6 Clear   72 72     100%   73 30.07        
Jul 15 03:35 Calm 5 Clear   72 72     100%   73 30.07        
Jul 15 03:15 Calm 5 Clear   72 72     100%   73 30.07        
Jul 15 02:55 Calm 5 Clear   72 72     100%   73 30.06        
Jul 15 02:35 Calm 7 Clear   73 73     100%   75 30.06        
Jul 15 02:15 Calm 8 Clear   73 73     100%   75 30.06        
Jul 15 01:55 Calm 7 Clear   73 73     100%   75 30.06        
Jul 15 01:35 Calm 7 Clear   73 73     100%   75 30.07        
Jul 15 01:15 Calm 8 Clear   73 73     100%   75 30.07        
Jul 15 00:55 Calm 7 Clear   73 73     100%   75 30.07        
Jul 15 00:35 Calm 7 Clear   73 73     100%   75 30.07        
Jul 15 00:15 Calm 9 Clear   73 73     100%   75 30.08        
Jul 14 23:55 Calm 10 Clear   75 75     100%   77 30.08        
Jul 14 23:35 Calm 10 Clear   73 73     100%   75 30.08        
Jul 14 23:15 Calm 10 Clear   75 75     100%   77 30.08        
Jul 14 22:55 Calm 10 Clear   75 75     100%   77 30.09        
Jul 14 22:35 Calm 10 Clear   75 75     100%   77 30.09        
Jul 14 22:15 Calm 10 Clear   75 75     100%   77 30.09        
Jul 14 21:55 Calm 10 Clear   75 75     100%   77 30.08        
Jul 14 21:35 Calm 10 Clear   75 75     100%   77 30.08        
Jul 14 21:15 Calm 10 Clear   75 75     100%   77 30.08        
Jul 14 20:55 Calm 10 Clear   75 75     100%   77 30.07        
Jul 14 20:35 Calm 10 Clear   77 75     94%   79 30.08        
Jul 14 20:15 Calm 10 Clear   79 75     89%   82 30.07        
Jul 14 19:55 Calm 10 Clear   79 75     89%   82 30.07        
Jul 14 19:35 SW 5 10 Clear   79 75     89%   82 30.07        
Jul 14 19:15 WSW 6 10 Clear   81 75     84%   86 30.06        
Jul 14 18:55 SW 6 10 Clear   81 75     84%   86 30.05        
Jul 14 18:35 SW 6 10 Clear   81 75     84%   86 30.06        
Jul 14 18:15 SW 6 10 Clear   82 75     79%   89 30.05        
Jul 14 17:55 SSW 7 10 Clear   82 75     79%   89 30.04        
Jul 14 17:35 SW 7 10 Clear   84 75     74%   92 30.04        
Jul 14 17:15 SW 6 10 Clear   88 75     66%   98 30.04        
Jul 14 16:55 W 7 10 Clear   90 73     59%   98 30.04        
Jul 14 16:35 3 10 Clear   90 75     63%   100 30.03        
Jul 14 16:15 Calm 10 Clear   90 75     63%   100 30.05        
Jul 14 15:55 Calm 10 Clear   90 75     63%   100 30.05        
Jul 14 15:35 WNW 6 10 Clear   88 75     66%   98 30.07        
Jul 14 15:15 5 10 Clear   88 75     66%   98 30.07        
Jul 14 14:55 NNE 6 10 Clear   91 77     63%   105 30.06        
Jul 14 14:35 Calm 10 Clear   91 77     63%   105 30.06        
Jul 14 14:15 Calm 10 Clear   91 77     63%   105 30.07        
Jul 14 13:55 Calm 10 Clear   90 79     71%   105 30.07        
Jul 14 13:35 Calm 10 Clear   91 79     67%   108 30.08        
Jul 14 13:15 5 10 Clear   90 79     71%   105 30.09        
Jul 14 12:55 Calm 10 Clear   90 77     67%   103 30.1        
Jul 14 12:35 Calm 10 Clear   88 77     70%   100 30.11        
Jul 14 12:15 Calm 10 Clear   88 79     75%   102 30.12        
Jul 14 11:55 Calm 9 Clear   86 79     79%   99 30.13        
Jul 14 11:35 WSW 5 10 Clear   86 79     79%   99 30.13        
Jul 14 11:15 Calm 10 Clear   86 79     79%   99 30.13        
Jul 14 10:55 Calm 10 Clear   84 79     84%   96 30.13        
Jul 14 10:35 Calm 10 Clear   84 79     84%   96 30.13        
Jul 14 09:55 Calm 9 Clear   82 79     89%   92 30.14        
Jul 14 09:35 Calm 10 Clear   82 79     89%   92 30.14        
Jul 14 08:35 Calm 9 Clear   79 79     100%   83 30.14        
Jul 14 08:15 Calm 9 Clear   77 77     100%   79 30.13        
Jul 14 07:55 Calm 6 Clear   77 77     100%   79 30.13        
Jul 14 07:35 Calm 5 Clear   75 75     100%   77 30.13        
Jul 14 07:15 Calm 3 Clear   75 75     100%   77 30.13        
Jul 14 06:55 Calm 0.25 Clear   73 73     100%   75 30.12        
Jul 14 06:35 Calm 3 Clear   72 72     100%   73 30.12        
Jul 14 06:15 Calm 3 Clear   72 72     100%   73 30.12        
Jul 14 05:55 Calm 2 Clear   72 72     100%   73 30.11        
Jul 14 05:35 Calm 4 Clear   72 72     100%   73 30.11        
Jul 14 05:15 Calm 2.5 Clear   72 72     100%   73 30.1        
Jul 14 04:55 Calm 3 Clear   72 72     100%   73 30.1        
Jul 14 04:35 Calm 3 Clear   72 72     100%   73 30.1        
Jul 14 04:15 Calm 3 Clear   72 72     100%   73 30.1        
Jul 14 03:55 Calm 2.5 Clear   72 72     100%   73 30.1        
Jul 14 03:35 Calm 3 Clear   72 72     100%   73 30.1        
Jul 14 03:15 Calm 5 Clear   73 73     100%   75 30.1        
Jul 14 02:55 Calm 5 Clear   73 73     100%   75 30.1        
Jul 14 02:35 Calm 5 Clear   73 73     100%   75 30.1        
Jul 14 02:15 Calm 5 Clear   72 72     100%   73 30.1        
Jul 14 01:55 Calm 4 Clear   72 72     100%   73 30.1        
Jul 14 01:35 Calm 4 Clear   73 73     100%   75 30.1        
Jul 14 00:55 Calm 4 Clear   73 73     100%   75 30.1        
Jul 14 00:35 Calm 7 Clear   73 73     100%   75 30.1        
Jul 14 00:15 Calm 5 Clear   73 73     100%   75 30.1        
Jul 13 23:55 Calm 5 Clear   73 73     100%   75 30.1        
Jul 13 23:35 Calm 5 Clear   73 73     100%   75 30.1        
Jul 13 23:15 Calm 3 Clear   73 73     100%   75 30.1        
Jul 13 22:55 Calm 4 Clear   73 73     100%   75 30.11        
Jul 13 22:35 Calm 5 Clear   75 75     100%   77 30.11        
Jul 13 22:15 Calm 7 Clear   75 75     100%   77 30.12        
Jul 13 21:55 Calm 5 Clear   75 75     100%   77 30.11        
Jul 13 21:35 Calm 4 Clear   75 75     100%   77 30.11        
Jul 13 21:15 Calm 10 Clear   77 77     100%   79 30.11        
Jul 13 20:55 Calm 10 Clear   79 77     94%   83 30.11        
Jul 13 20:35 Calm 9 Clear   77 77     100%   79 30.1        
Jul 13 20:15 Calm 9 Clear   77 77     100%   79 30.09        
Jul 13 19:55 SW 5 10 Clear   79 79     100%   83 30.08        
Jul 13 19:35 Calm 10 Clear   81 77     89%   87 30.08        
Jul 13 18:55 Calm 10 Clear   81 77     89%   87 30.08        
Jul 13 18:35 SW 3 10 Clear   82 77     84%   91 30.09        
Jul 13 18:15 SW 5 10 Clear   82 77     84%   91 30.09        
Jul 13 17:55 SSW 7 10 Clear   82 77     84%   91 30.09        
Jul 13 17:35 SSW 6 10 Clear   84 79     84%   96 30.08        
Jul 13 17:15 SSW 5 10 Clear   84 79     84%   96 30.08        
Jul 13 16:55 S 7 10 Clear   84 81     89%   98 30.07        
Jul 13 16:35 Calm 10 Clear   84 79     84%   96 30.08        
Jul 13 16:15 Calm 10 Clear   84 79     84%   96 30.09        
Jul 13 15:55 Calm 10 Clear   84 79     84%   96 30.09        
Jul 13 15:35 Calm 10 Clear   82 77     84%   91 30.08        
Jul 13 15:15 Calm 10 Clear   82 77     84%   91 30.09        
Jul 13 14:55 Calm 10 Clear   82 77     84%   91 30.1        
Jul 13 14:35 3 10 Clear   84 77     79%   94 30.1        
Jul 13 14:15 Calm 10 Clear   86 75     70%   95 30.1        
Jul 13 13:55 Calm 10 Clear   82 75     79%   89 30.11        
Jul 13 13:35 Calm 10 Clear   82 77     84%   91 30.12        
Jul 13 13:15 N 7 10 Clear   82 75     79%   89 30.14        
Jul 13 12:55 S 7 10 Clear   81 75     84%   86 30.14        
Jul 13 12:35 SSW 5 9 Clear   81 75     84%   86 30.14        
Jul 13 12:15 Calm 10 Clear   79 75     89%   82 30.14        
Jul 13 11:55 Calm 9 Clear   81 77     89%   87 30.15        
Jul 13 11:35 Calm 0.25 Clear   81 75     84%   86 30.14        
Jul 13 11:15 Calm 9 Clear   86 79     79%   99 30.14        
Jul 13 10:55 Calm 10 Clear   84 79     84%   96 30.15        
Jul 13 10:35 Calm 10 Clear   84 79     84%   96 30.15        
Jul 13 10:15 Calm 10 Clear   84 79     84%   96 30.15        
Jul 13 09:55 Calm 10 Clear   84 79     84%   96 30.15        
Jul 13 09:35 Calm 10 Clear   82 79     89%   92 30.15        
Jul 13 09:15 Calm 10 Clear   82 79     89%   92 30.15        
Jul 13 08:55 Calm 10 Clear   81 79     94%   88 30.15        
Jul 13 08:35 Calm 10 Clear   81 79     94%   88 30.15        
Jul 13 08:15 Calm 9 Clear   79 79     100%   83 30.15        
Jul 13 07:55 Calm 2 Clear   79 79     100%   83 30.15        
Jul 13 07:15 Calm 2.5 Clear   77 77     100%   79 30.14        
Jul 13 06:55 Calm 2 Clear   75 75     100%   77 30.13        
Jul 13 06:35 Calm 3 Clear   75 75     100%   77 30.13        
Jul 13 06:15 Calm 2.5 Clear   73 73     100%   75 30.12        
Jul 13 05:55 Calm 3 Clear   72 72     100%   73 30.12        
Jul 13 05:35 Calm 4 Clear   72 72     100%   73 30.11        
Jul 13 05:15 Calm 4 Clear   72 72     100%   73 30.1        
Jul 13 04:55 Calm 4 Clear   72 72     100%   73 30.1        
Jul 13 04:35 Calm 3 Clear   72 72     100%   73 30.1        
Jul 13 04:15 Calm 5 Clear   72 72     100%   73 30.1        
Jul 13 03:55 Calm 3 Clear   73 73     100%   75 30.09        
Jul 13 03:35 Calm 4 Clear   73 73     100%   75 30.09        
Jul 13 03:15 Calm 4 Clear   73 73     100%   75 30.08        
Jul 13 02:55 Calm 3 Clear   73 73     100%   75 30.09        
Jul 13 02:35 Calm 5 Clear   73 73     100%   75 30.08        
Jul 13 02:15 Calm 5 Clear   75 75     100%   77 30.08        
Jul 13 01:55 Calm 4 Clear   73 73     100%   75 30.09        
Jul 13 01:35 Calm 5 Clear   73 73     100%   75 30.09        
Jul 13 01:15 Calm 7 Clear   75 75     100%   77 30.09        
Jul 13 00:55 Calm 6 Clear   73 73     100%   75 30.09        
Jul 13 00:35 Calm   Clear   73 73     100%   75 30.09        
Jul 13 00:15 Calm 5 Clear   73 73     100%   75 30.09        
Jul 12 23:55 Calm 6 Clear   75 75     100%   77 30.09        
Jul 12 23:15 Calm 5 Clear   75 75     100%   77 30.09        
Jul 12 22:55 Calm 7 Clear   75 75     100%   77 30.09        
Jul 12 22:35 Calm 7 Clear   75 75     100%   77 30.1        
Jul 12 22:15 Calm 9 Clear   75 75     100%   77 30.1        
Jul 12 21:55 Calm 9 Clear   77 77     100%   79 30.1        
Jul 12 21:35 Calm 9 Clear   77 77     100%   79 30.09        
Jul 12 20:55 Calm 10 Clear   79 79     100%   83 30.07        
Jul 12 20:35 Calm 10 Clear   79 79     100%   83 30.07        
Jul 12 20:15 Calm 10 Clear   81 79     94%   88 30.06        
Jul 12 19:55 Calm 10 Clear   82 79     89%   92 30.05        
Jul 12 19:35 NE 3 10 Clear   84 79     84%   96 30.05        
Jul 12 19:15 N 5 10 Clear   84 79     84%   96 30.05        
Jul 12 18:55 NE 5 10 Clear   86 79     79%   99 30.06        
Jul 12 18:35 NE 10 10 Clear   88 77     70%   100 30.05        
Jul 12 18:15 NE 6   Clear   91 75     59%   103 30.05        
Jul 12 17:55 N 5 10 Clear   91 75     59%   103 30.04        
Jul 12 17:35 NNW 5 10 Clear   93 75     56%   105 30.04        
May 15 08:35 Calm 10 Clear   73 70     89%   75 30.01        
May 14 21:15 Calm 10 Clear   72 72     100%   73 29.96        
Notice The following observation data may not be complete
May 14 16:55   10 Clear            %              
May 14 15:55 NNE 6 10 Clear   90 64     43%   91 29.97        
May 14 12:35 ENE 5 10 Clear   90 66     46%   92 30.04        
May 14 11:55 5 10 Clear   88 68     52%   91 30.05        
May 14 11:15 6 10 Clear   86 68     55%   89 30.06        
May 14 09:55 E 5 10 Clear   81 70     70%   84 30.07        
Notice The following observation data may not be complete
May 14 08:15 Calm 10 Clear     70      %     30.07        
May 14 05:15 Calm 5 Clear   61 61     100%     30.04        
May 14 02:55 Calm 7 Clear   63 63     100%     30.03        
Notice The following observation data may not be complete
May 13 20:55 Calm 10 Clear     68      %     30.05        
May 13 16:15 Calm 10 Clear   91 59     34%   91 30.04        
May 13 14:55 Calm 10 Clear   90 61     38%   90 30.07        
Notice The following observation data may not be complete
May 13 12:55   10 Clear            %              
May 13 10:15 Calm 10 Clear   82 64     55%   84 30.17        
May 13 01:15 Calm 7 Clear   59 59     100%     30.09        
May 12 22:15 Calm 10 Clear   63 63     100%     30.12        
May 12 14:35 6 10 Clear   88 59     38%   87 30.12        
May 12 11:55 Calm 10 Clear   86 61     43%   86 30.17        
May 12 08:55 Calm 10 Clear   75 66     74%   76 30.19        
May 12 08:15 Calm 10 Clear   70 68     94%     30.19        
May 12 00:55 Calm 6 Clear   61 61     100%     30.1        
May 12 00:15 Calm 9 Clear   61 61     100%     30.1        
May 11 22:55 Calm 10 Clear   63 63     100%     30.11        
Notice The following observation data may not be complete
May 11 20:55 Calm 10 Clear     66      %     30.09        
May 11 12:35 S 5 10 Clear   86 63     46%   87 30.13